This is the latest recevied weather packets stored in our database for station/object KQ4KX. If no packets are shown the sender has not sent any weather packets the latest 10 day(s).
| Time | Temp. | Humidity | Pressure | Rain* | Wind** | Luminosity | Snow |
|---|---|---|---|---|---|---|---|
| 1777930502 | 26.67° C | 66% | 1014.5 hPa | 0 mm | - | - | - |
| 1777929573 | 26.67° C | 65% | 1014.4 hPa | 0 mm | - | - | - |
| 1777928073 | 27.22° C | 62% | 1014.6 hPa | 0 mm | - | - | - |
| 1777927442 | 27.78° C | 62% | 1014.6 hPa | 0 mm | - | - | - |
| 1777927142 | 27.78° C | 63% | 1014.6 hPa | 0 mm | - | - | - |
| 1777926842 | 27.78° C | 61% | 1014.7 hPa | 0 mm | - | - | - |
| 1777926542 | 27.78° C | 59% | 1014.7 hPa | 0 mm | - | - | - |
| 1777926242 | 28.33° C | 60% | 1014.7 hPa | 0 mm | - | - | - |
| 1777925912 | 27.78° C | 61% | 1014.7 hPa | 0 mm | - | - | - |
| 1777925312 | 27.78° C | 60% | 1014.7 hPa | 0 mm | - | - | - |
| 1777925012 | 28.33° C | 60% | 1014.8 hPa | 0 mm | - | - | - |
| 1777923812 | 28.33° C | 59% | 1015.2 hPa | 0 mm | - | - | - |
| 1777923511 | 27.78° C | 61% | 1015 hPa | 0 mm | - | - | - |
| 1777923211 | 28.33° C | 59% | 1015.2 hPa | 0 mm | - | - | - |
| 1777922911 | 27.78° C | 60% | 1015 hPa | 0 mm | - | - | - |
| 1777922611 | 27.78° C | 61% | 1015.2 hPa | 0 mm | - | - | - |
| 1777922311 | 27.78° C | 61% | 1015.3 hPa | 0 mm | - | - | - |
| 1777921683 | 27.78° C | 60% | 1015.4 hPa | 0 mm | - | - | - |
| 1777921382 | 27.78° C | 59% | 1015.3 hPa | 0 mm | - | - | - |
| 1777921051 | 27.78° C | 59% | 1015.5 hPa | 0 mm | - | - | - |
| 1777920751 | 27.22° C | 61% | 1015.6 hPa | 0 mm | - | - | - |
| 1777920452 | 27.22° C | 64% | 1015.6 hPa | 0 mm | - | - | - |
| 1777920151 | 27.22° C | 60% | 1015.8 hPa | 0 mm | - | - | - |
| 1777919821 | 28.33° C | 57% | 1015.9 hPa | 0 mm | - | - | - |
| 1777919521 | 28.89° C | 57% | 1016 hPa | 0 mm | - | - | - |
* Rain latest hour (hover to see other rain measurements)
** Current wind speed in m/s (hover to see current wind gust speed)